Flag for Austria Weather past 2 weeks in Bad Radkersburg, Styria, Austria

Now
49 °F

Overcast.


Feels Like: 49 °F
Forecast: 35 / 51 °F
Wind: 3 mph from Southwest

Location: Murska Sobota

Current Time: Mar 2, 2015 at 8:50:27 AM

Latest Report: Mar 2, 2015 at 8:00 AM


Visibility: 6 mi

Pressure: 29.77 "Hg

Humidity: 67%

Dew point: 39 °F

Location of Bad RadkersburgLocation

Historic Weather in Bad Radkersburg — Graph

°F

Bad Radkersburg temperature yesterday

Maximum temperature yesterday: 52 °F (at 4:00 PM)
Minimum temperature yesterday: 37 °F (at 9:00 AM)
Average temperature yesterday: 47 °F

Past Weeks' High & Low Weather Summary

 TemperatureHumidityPressure
High52 °F (Feb 21, 2:00 PM)98% (Feb 24, 4:00 AM)30.79 "Hg (Feb 24, 4:00 AM)
Low22 °F (Feb 20, 7:00 AM)44% (Feb 20, 4:00 PM)29.66 "Hg (Feb 23, 4:00 PM)
Average40 °F77%30.09 "Hg
* Reported Feb 15 7:00 AM — Mar 2 7:00 AM, Bad Radkersburg, Weather by CustomWeather, © 2015

Note: Actual official high and low records may vary slightly from our data, if they occured in-between our weather recording intervals... More about our weather records

Advertising

Bad Radkersburg weather history for previous 24 hours

 ConditionsComfort  
Time TempWeatherWind HumidityBarometerVisibility
7:00 AM
Mon, Mar 2
48 °FOvercast.3 mph68%29.78 "Hg6 mi
6:00 AM48 °FCool.6 mph69%29.80 "HgN/A
5:00 AM48 °FCool.6 mph67%29.81 "HgN/A
4:00 AM45 °FCool.3 mph71%29.83 "HgN/A
3:00 AM46 °FCool.3 mph69%29.84 "HgN/A
2:00 AM44 °FQuite cool.2 mph72%29.85 "HgN/A
1:00 AM39 °FChilly.1 mph85%29.89 "HgN/A
12:00 AM37 °FChilly.2 mph82%29.90 "HgN/A
11:00 PM
Sun, Mar 1
39 °FChilly.1 mph78%29.90 "HgN/A
10:00 PM45 °FCool.2 mph67%29.90 "HgN/A
9:00 PM45 °FQuite cool.2 mph67%29.90 "HgN/A
8:00 PM47 °FCool.2 mph62%29.89 "HgN/A
7:00 PM50 °FOvercast.2 mph56%29.87 "Hg6 mi
6:00 PM50 °FCool.2 mph57%29.88 "HgN/A
5:00 PM51 °FCool.3 mph54%29.88 "HgN/A
4:00 PM52 °FCool.3 mph53%29.87 "HgN/A
3:00 PM51 °FCool.5 mph56%29.89 "HgN/A
2:00 PM51 °FOvercast.5 mph57%29.90 "Hg6 mi
1:00 PM50 °FPartly sunny.5 mph57%29.93 "Hg6 mi
12:00 PM49 °FCool.3 mph62%29.95 "HgN/A
11:00 AM47 °FCool.5 mph64%29.98 "HgN/A
10:00 AM41 °FQuite cool.1 mph80%30.01 "HgN/A
9:00 AM37 °FChilly.1 mph87%30.03 "HgN/A
Weather by CustomWeather, © 2015

See weather overviewHow to use our weather pages